TimeEET,TemperatureF,Dew PointF,Humidity,Sea Level PressureIn,VisibilityMPH,Wind Direction,Wind SpeedMPH,Gust SpeedMPH,PrecipitationIn,Events,Conditions,WindDirDegrees,DateUTC
12:20 AM,46.4,33.8,62,30.21,3.7,North,10.4,-,N/A,,Mostly Cloudy,360,2011-11-16 22:20:00
12:50 AM,46.4,35.6,66,30.21,3.7,North,10.4,-,N/A,,Mostly Cloudy,360,2011-11-16 22:50:00
1:20 AM,44.6,37.4,76,30.21,6.2,North,6.9,-,N/A,,Mostly Cloudy,350,2011-11-16 23:20:00
1:50 AM,44.6,37.4,76,30.21,6.2,North,10.4,-,N/A,,Mostly Cloudy,360,2011-11-16 23:50:00
2:00 AM,45,38,67,30.23,6,North,10.4,,,,Partly Cloudy,0,2011-11-17 00:00:00
2:20 AM,44.6,37.4,76,30.21,6.2,North,5.8,-,N/A,,Mostly Cloudy,10,2011-11-17 00:20:00
2:50 AM,44.6,39.2,81,30.21,3.7,NNW,6.9,-,N/A,,Mostly Cloudy,340,2011-11-17 00:50:00
3:20 AM,44.6,41.0,87,30.21,6.2,North,6.9,-,N/A,,Mostly Cloudy,360,2011-11-17 01:20:00
3:50 AM,44.6,39.2,81,30.21,5.0,North,6.9,-,N/A,Rain,Light Rain Showers,10,2011-11-17 01:50:00
4:20 AM,44.6,41.0,87,30.21,6.2,Variable,5.8,-,N/A,,Mostly Cloudy,0,2011-11-17 02:20:00
4:50 AM,44.6,41.0,87,30.21,6.2,NNE,6.9,-,N/A,,Mostly Cloudy,20,2011-11-17 02:50:00
5:20 AM,44.6,42.8,93,30.21,3.7,North,6.9,-,N/A,Rain,Light Rain Showers,350,2011-11-17 03:20:00
5:50 AM,44.6,42.8,93,30.21,3.7,North,6.9,-,N/A,Rain,Light Rain Showers,350,2011-11-17 03:50:00
6:20 AM,44.6,42.8,93,30.24,3.7,NNE,6.9,-,N/A,Rain,Light Rain Showers,30,2011-11-17 04:20:00
6:50 AM,44.6,42.8,93,30.24,4.3,NNE,5.8,-,N/A,,Mostly Cloudy,30,2011-11-17 04:50:00
7:20 AM,44.6,42.8,93,30.24,3.7,Variable,4.6,-,N/A,Rain,Light Rain Showers,0,2011-11-17 05:20:00
7:50 AM,44.6,42.8,93,30.24,3.7,NNW,5.8,-,N/A,Rain,Light Rain Showers,330,2011-11-17 05:50:00
8:00 AM,44,43,95,30.27,4,NNW,5.8,,,Rain,Light Rain Showers,330,2011-11-17 06:00:00
8:20 AM,46.4,41.0,81,30.27,3.7,NE,10.4,-,N/A,Rain,Light Rain Showers,40,2011-11-17 06:20:00
8:50 AM,46.4,39.2,76,30.27,6.2,NE,11.5,-,N/A,Rain,Light Rain Showers,40,2011-11-17 06:50:00
9:20 AM,48.2,39.2,71,30.27,6.2,NE,10.4,-,N/A,Rain,Light Rain Showers,40,2011-11-17 07:20:00
9:50 AM,46.4,37.4,71,30.27,6.2,ENE,9.2,-,N/A,,Mostly Cloudy,60,2011-11-17 07:50:00
10:20 AM,46.4,37.4,71,30.27,6.2,NE,9.2,-,N/A,,Mostly Cloudy,50,2011-11-17 08:20:00
10:50 AM,48.2,35.6,62,30.27,6.2,NE,12.7,-,N/A,,Mostly Cloudy,40,2011-11-17 08:50:00
11:20 AM,46.4,39.2,76,30.27,5.0,NNE,13.8,-,N/A,Rain,Light Rain Showers,20,2011-11-17 09:20:00
11:50 AM,46.4,35.6,66,30.27,6.2,NNE,15.0,-,N/A,,Mostly Cloudy,20,2011-11-17 09:50:00
12:20 PM,48.2,35.6,62,30.27,6.2,Variable,13.8,-,N/A,,Mostly Cloudy,0,2011-11-17 10:20:00
12:50 PM,48.2,35.6,62,30.27,6.2,NNE,11.5,-,N/A,,Mostly Cloudy,30,2011-11-17 10:50:00
1:20 PM,46.4,35.6,66,30.27,6.2,NE,10.4,-,N/A,,Mostly Cloudy,40,2011-11-17 11:20:00
1:50 PM,48.2,37.4,66,30.27,6.2,ENE,10.4,-,N/A,,Mostly Cloudy,60,2011-11-17 11:50:00
2:00 PM,47,37,57,30.29,6,ENE,10.4,,,,Partly Cloudy,60,2011-11-17 12:00:00
2:20 PM,44.6,37.4,76,30.27,6.2,NE,17.3,-,N/A,Rain,Light Rain Showers,40,2011-11-17 12:20:00
2:50 PM,46.4,37.4,71,30.27,6.2,NE,10.4,-,N/A,,Mostly Cloudy,50,2011-11-17 12:50:00
3:20 PM,46.4,37.4,71,30.27,6.2,NE,9.2,-,N/A,,Mostly Cloudy,40,2011-11-17 13:20:00
3:50 PM,46.4,37.4,71,30.27,6.2,NE,11.5,-,N/A,,Mostly Cloudy,50,2011-11-17 13:50:00
4:20 PM,46.4,33.8,62,30.27,6.2,NNE,11.5,-,N/A,,Mostly Cloudy,30,2011-11-17 14:20:00
4:50 PM,46.4,35.6,66,30.27,6.2,NNE,9.2,-,N/A,,Mostly Cloudy,20,2011-11-17 14:50:00
5:20 PM,44.6,35.6,71,30.30,6.2,North,13.8,-,N/A,,Mostly Cloudy,360,2011-11-17 15:20:00
5:50 PM,46.4,35.6,66,30.30,6.2,NE,10.4,-,N/A,,Mostly Cloudy,40,2011-11-17 15:50:00
6:20 PM,46.4,33.8,62,30.30,6.2,NNE,6.9,-,N/A,,Mostly Cloudy,30,2011-11-17 16:20:00
6:50 PM,46.4,33.8,62,30.30,6.2,NNE,5.8,-,N/A,,Mostly Cloudy,30,2011-11-17 16:50:00
7:20 PM,46.4,32.0,57,30.30,6.2,NNE,5.8,-,N/A,,Mostly Cloudy,20,2011-11-17 17:20:00
7:50 PM,44.6,32.0,61,30.30,6.2,NNE,4.6,-,N/A,,Mostly Cloudy,20,2011-11-17 17:50:00
8:00 PM,44,31,48,30.32,6,NNE,4.6,,,,Partly Cloudy,20,2011-11-17 18:00:00
8:20 PM,44.6,32.0,61,30.30,6.2,North,5.8,-,N/A,,Mostly Cloudy,350,2011-11-17 18:20:00
8:50 PM,41.0,30.2,65,30.30,3.7,Variable,4.6,-,N/A,,Mostly Cloudy,0,2011-11-17 18:50:00
9:20 PM,41.0,32.0,70,30.30,3.7,North,3.5,-,N/A,,Mostly Cloudy,350,2011-11-17 19:20:00
9:50 PM,41.0,32.0,70,30.30,4.3,North,9.2,-,N/A,,Mostly Cloudy,350,2011-11-17 19:50:00
10:20 PM,44.6,33.8,66,30.30,4.3,NNE,8.1,-,N/A,,Mostly Cloudy,30,2011-11-17 20:20:00
10:50 PM,44.6,33.8,66,30.30,5.0,NE,8.1,-,N/A,,Mostly Cloudy,50,2011-11-17 20:50:00
11:20 PM,44.6,33.8,66,30.30,5.0,ENE,8.1,-,N/A,,Mostly Cloudy,60,2011-11-17 21:20:00
11:50 PM,44.6,35.6,71,30.30,5.0,NE,6.9,-,N/A,,Mostly Cloudy,50,2011-11-17 21:50:00